World > North America > United States > Michigan   City of Grand Rapids, MI

Hourly Grand Rapids, MI Regional Weather

Feedback E-mail the Weather

Latest News

Grand Rapids, MI Weather Maps

°F °C°F °C
Grand Rapids Weather Map
UTC Time: 5/26/2022, 20:02
Your Time:

Grand Rapids, MI Regional Weather

Expires:202205262000;;616847
ASUS43 KDTX 261910
RWRMI 
MICHIGAN HOURLY REGIONAL WEATHER ROUNDUP
NATIONAL WEATHER SERVICE DETROIT/PONTIAC MI
300 PM EDT THU MAY 26 2022

NOTE: "FAIR" INDICATES FEW OR NO CLOUDS BELOW 12,000 FEET WITH NO
SIGNIFICANT WEATHER AND/OR OBSTRUCTION TO VISIBILITY.


MIZ043>046-050>051-056>058-064>065-071>073-077>080-262000-
SOUTHWEST LOWER MICHIGAN
  
CITY           SKY/WX    TMP DP  RH WIND       PRES   REMARKS
BATTLE CREEK   CLOUDY    72  65  78 S9        29.83S                  
BENTON HARBOR  CLOUDY    74  63  68 S9        29.81R                  
BIG RAPIDS     PTSUNNY   76  65  69 SW7       29.79F                  
COLDWATER      LGT RAIN  69  66  92 S8        29.85R                  
FREMONT        FAIR      76  65  68 SW12      29.79F                  
HOLLAND        CLOUDY    75  66  73 W8        29.80F                  
GRAND RAPIDS   CLOUDY    75  64  68 S9        29.80F                  
IONIA          CLOUDY    75  64  68 SW7       29.80S                  
KALAMAZOO      PTSUNNY   74  63  68 S15       29.82F                  
LUDINGTON      PTSUNNY   70  66  86 SW8       29.78F FOG              
MARSHALL       LGT RAIN  69  66  90 S8        29.82S                  
MOUNT PLEASANT PTSUNNY   76  64  67 SW7       29.78F                  
MUSKEGON       PTSUNNY   75  64  68 SW14      29.80F                  
SOUTH HAVEN    CLOUDY    73  64  73 SW5       29.81R                  
$$

SKY/WX - Weather  TMP - Temperature  DP - Dew Point  RH - Humidity
WIND - Wind Direction/Speed PRES - Barometric Pressure VSB - Visibility
WCI - Wind Chill Index E13G22 Wind - East Wind 13 mph/Gusts of 22 mph

Trending Headlines

Grand Rapids Radar Loop



Grand Rapids Quick Facts


National Two Day Weather Forecast


E-mail the Grand Rapids Weather Forecast

Voice your opinion or tell us about page issues...